Pearl, MS

8:47 AM CST on February 20, 2017 (GMT -0600)
Jackson-Evers International

Weather History for KJAN - January, 2012

Change the Weather History Date:

Tuesday, January 24, 2012

  Actual Average Record
Temperature  
Mean Temperature 56 °F 46 °F  
Max Temperature 70 °F 57 °F 82 °F (1972)
Min Temperature 41 °F 35 °F 1 °F (1948)
Degree Days  
Heating Degree Days 9 19  
Month to date heating degree days 297 475  
Since 1 July heating degree days 1168 1425  
Cooling Degree Days 0 0  
Month to date cooling degree days 3 0  
Year to date cooling degree days 3 0  
Growing Degree Days 6 (Base 50)    
Moisture  
Dew Point 37 °F    
Average Humidity 60    
Maximum Humidity 89    
Minimum Humidity 30    
Precipitation  
Precipitation T in 0.17 in 2.30 in (1990)
Month to date precipitation 2.43 3.73  
Year to date precipitation 2.43 3.73  
Sea Level Pressure  
Sea Level Pressure 30.16 in    
Wind  
Wind Speed 5 mph (ENE)    
Max Wind Speed 14 mph    
Max Gust Speed 17 mph    
Visibility 10 miles    
Events Rain    
T = Trace of Precipitation, MM = Missing Value Source: NWS Daily Summary

Daily Weather History Graph

Daily Weather History Graph

Search for Another Location

Airport or City:

Trip Planner

Search our weather history database for the weather conditions in past years. The results will help you decide how hot, cold, wet, or windy it might be!

Date:

Astronomy

Jan. 24, 2012 Rise Set
Actual Time 6:59 AM CST 5:25 PM CST
Civil Twilight 6:32 AM CST 5:52 PM CST
Nautical Twilight 6:03 AM CST 6:21 PM CST
Astronomical Twilight 5:34 AM CST 6:50 PM CST
Moon 7:35 AM CST (1/24) 7:08 PM CST (1/24)
Length of Visible Light 11h 19m
Length of Day
10h 26m
New Moon, 2% of the Moon is Illuminated
Jan 24
New Moon
Jan 30
First Quarter
Feb 7
Full
Feb 14
Last Quarter
Feb 21
New

Hourly Weather History & Observations

Time (CST) Temp. Windchill Dew Point Humidity Pressure Visibility Wind Dir Wind Speed Gust Speed Precip Events Conditions
12:54 AM 43.0 °F - 39.0 °F 86% 30.12 in 10.0 mi Calm Calm - N/A   Clear
1:54 AM 44.1 °F - 37.9 °F 79% 30.12 in 10.0 mi Calm Calm - N/A   Clear
2:54 AM 43.0 °F 39.5 °F 37.0 °F 80% 30.13 in 10.0 mi NE 5.8 mph - N/A   Clear
3:54 AM 44.1 °F 42.5 °F 37.0 °F 76% 30.14 in 10.0 mi NE 3.5 mph - N/A   Clear
4:54 AM 42.1 °F - 36.0 °F 79% 30.15 in 10.0 mi Calm Calm - N/A   Clear
5:54 AM 42.8 °F 41.1 °F 35.6 °F 76% 30.16 in 10.0 mi NE 3.5 mph - N/A   Clear
6:54 AM 42.1 °F 40.2 °F 35.1 °F 76% 30.19 in 10.0 mi NE 3.5 mph - N/A   Clear
7:54 AM 46.9 °F - 36.0 °F 66% 30.20 in 10.0 mi ENE 5.8 mph - N/A   Clear
8:54 AM 52.0 °F - 35.1 °F 53% 30.22 in 10.0 mi ENE 9.2 mph - N/A   Clear
9:54 AM 55.9 °F - 36.0 °F 47% 30.22 in 10.0 mi ENE 10.4 mph - N/A   Clear
10:54 AM 60.1 °F - 34.0 °F 38% 30.22 in 10.0 mi ENE 8.1 mph - N/A   Clear
11:54 AM 62.6 °F - 35.6 °F 37% 30.19 in 10.0 mi ENE 8.1 mph - N/A   Clear
12:54 PM 66.0 °F - 35.1 °F 32% 30.15 in 10.0 mi Variable 5.8 mph - N/A   Clear
1:54 PM 68.0 °F - 36.0 °F 31% 30.14 in 10.0 mi Variable 4.6 mph - N/A   Clear
2:54 PM 69.1 °F - 37.9 °F 32% 30.12 in 10.0 mi NE 8.1 mph - N/A   Clear
3:54 PM 66.9 °F - 37.9 °F 34% 30.13 in 10.0 mi ENE 4.6 mph - N/A   Clear
4:54 PM 64.9 °F - 39.0 °F 39% 30.14 in 10.0 mi East 3.5 mph - N/A   Clear
5:54 PM 63.0 °F - 39.0 °F 41% 30.15 in 10.0 mi East 4.6 mph - N/A   Scattered Clouds
6:54 PM 63.0 °F - 39.0 °F 41% 30.16 in 10.0 mi East 4.6 mph - N/A   Overcast
7:54 PM 62.1 °F - 39.0 °F 43% 30.16 in 10.0 mi Variable 4.6 mph - N/A   Mostly Cloudy
8:54 PM 60.1 °F - 39.0 °F 46% 30.17 in 10.0 mi SSE 8.1 mph - 0.00 in Rain Light Rain
9:54 PM 60.1 °F - 39.0 °F 46% 30.17 in 10.0 mi East 3.5 mph - 0.00 in   Overcast
10:54 PM 60.8 °F - 37.4 °F 42% 30.14 in 10.0 mi East 4.6 mph - N/A   Scattered Clouds
11:54 PM 59.0 °F - 37.9 °F 46% 30.11 in 10.0 mi ENE 4.6 mph - N/A   Scattered Clouds